Meteo Giornale » Osservazioni meteo Stati Uniti (USA) » Grissom-Peru

ore: 16:55 - Osservazioni Meteo Grissom-Peru
Lat. 40° 39' N Lon. 86° 9' W Alt. 247 metri s.l.m.

sereno

33 °C

Sereno

Temp. 24 Ore

22 °C

33 °C

Ovest/Sud-Ovest

14.8 Km/h

Dew point 23 °C

Umidità 55 %

Visibilità  10 Km

Il sole sorge alle ore 07:11

Il sole tramonta alle ore 20:17

Data e Ora Cielo e Fenomeni T °C DP °C Um. % Pres. hPa Vis. km Vento km/h
Oggi h: 16:55 sereno Sereno 33 23 55 1015 10 O/SO 14.8
Oggi h: 15:55 sereno Sereno 33 23 55 1015 10 O/SO 16.7
Oggi h: 14:55 poco_nuvoloso Poco Nuvoloso 33 23 55 1015 10 O 16.7
Oggi h: 13:55 poco_nuvoloso Poco Nuvoloso 32 24 62 1015 10 O/SO 16.7
Oggi h: 12:55 poco_nuvoloso Poco Nuvoloso 31 23 62 1016 10 SO 16.7
Oggi h: 11:55 sereno Sereno 30 23 66 1016 10 SO 18.5
Oggi h: 10:55 sereno Sereno 29 22 66 1016 10 O/SO 18.5
Oggi h: 10:31 sereno Sereno 29 22 66 1016 10 O/SO 18.5
Oggi h: 09:55 sereno Sereno 27 22 74 1016 10 O/SO 16.7
Oggi h: 08:55 sereno Sereno 25 21 78 1017 10 SO 13
Oggi h: 07:55 poco_nuvoloso Poco Nuvoloso 23 21 88 1016 10 N 5.5
Oggi h: 06:55 sereno Sereno 22 20 88 1016 10 SO 9.3
Oggi h: 05:55 sereno Sereno 24 21 83 1015 10 O/SO 16.7
Oggi h: 04:55 sereno Sereno 24 21 83 1015 10 O/SO 16.7
Oggi h: 03:55 sereno Sereno 24 20 78 1015 10 O/SO 18.5
Oggi h: 02:55 sereno Sereno 24 21 83 1015 10 SO 16.7
Oggi h: 01:55 nuvoloso Nuvoloso 25 21 78 1015 10 S/SO 14.8
Oggi h: 00:55 sereno Sereno 25 21 78 1015 10 S/SO 14.8
Ieri h: 23:55 molto_nuvoloso Molto Nuvoloso 26 21 73 1015 10 SO 13
Ieri h: 22:55 poco_nuvoloso Poco Nuvoloso 26 21 73 1015 10 S/SO 16.7
Ieri h: 21:55 poco_nuvoloso Poco Nuvoloso 25 20 73 1016 10 S/SO 7.4
Ieri h: 21:00 poco_nuvoloso Poco Nuvoloso 26 21 73 1015 10 S 9.3
Ieri h: 20:55 coperto_pioggia Pioggia 27 21 69 1015 10 S/SO 9.3
Ieri h: 20:34 coperto_pioggia Pioviggine 27 21 69 1015 10 S/SO 7.4
Ieri h: 19:55 nuvoloso Nuvoloso 28 20 61 1015 10 S/SO 9.3
Ieri h: 18:55 sereno Sereno 30 21 58 1015 10 SO 14.8